User: anonymous   Login
Location: Albany
(35.0000°S, 118.0000°E)
Time: 08:09:23
(UTC-04:00)
Language:

Cosmos 2227 Rocket - Orbit

View from above orbital plane
View from above orbital plane
View from above satellite
View from above satellite

Ground track
Ground track

The orbit data is extracted from the following two-line orbital elements,

1 22285U 92093B   15244.12577369  .00000309  00000-0  18444-3 0  9994
2 22285  71.0221 146.4137 0003113  18.1078 342.0155 14.14975615169877
Epoch (UTC): 01 September 2015 03:01:06
Eccentricity: 0.0003113
inclination: 71.0221°
perigee height: 840 km
apogee height: 844 km
right ascension of ascending node: 146.4137°
argument of perigee: 18.1078°
revolutions per day: 14.14975615
mean anomaly at epoch: 342.0155°
orbit number at epoch: 16987

The dashed part of the orbit path shows where the satellite is in the earth's shadow,  

DLR